EHI
4 2 1 0 0 0 0 0 0 0 0 0 0 0 0 0 0 0 0 0 0 0 0 0 0 0 0 0 0 0 0 1 2 3 4 4 3 1 0 1 1 0 0 0 0 0 0 0 0
1 1 0 0 0 0 0 0 0 0 0 0 0 0 0 0 0 0 0 0 0 0 0 0 0 0 0 0 0 0 0 1 2 3 3 3 2 1 0 1 1 0 0 0 0 0 0 0 0
0 0 0 0 0 0 0 0 1 1 0 0 0 0 0 0 0 0 0 0 0 0 0 0 0 0 0 0 0 0 0 0 1 2 3 3 2 0 0 1 1 0 0 0 0 0 0 0 0
0 0 0 0 0 0 0 1 2 1 0 0 0 0 0 0 0 0 0 0 0 0 0 0 0 0 0 1 1 0 0 0 0 1 1 2 1 0 0 0 0 0 0 0 0 0 0 0 0
0 0 0 0 0 0 0 1 1 1 0 0 0 0 0 0 0 0 0 0 0 0 0 0 0 0 0 1 1 0 0 0 0 0 0 1 1 0 0 0 0 0 0 0 0 0 0 0 0
0 0 0 0 0 0 0 0 1 0 0 0 0 0 0 0 0 0 0 0 0 0 0 0 0 0 0 1 1 0 0 0 0 0 0 0 0 0 0 0 0 0 0 0 0 0 0 0 0
0 0 0 0 0 0 0 0 1 0 0 0 0 0 0 0 0 0 0 0 0 0 0 0 0 0 0 0 0 0 0 1 1 0 0 0 0 0 0 0 0 0 0 0 0 0 0 0 0
0 0 0 0 0 0 0 0 0 0 0 0 0 0 0 1 1 0 0 0 0 0 0 0 0 0 1 1 1 1 1 2 2 1 0 0 0 0 0 0 0 0 0 0 0 0 0 0 0
0 0 0 0 0 0 0 0 0 0 0 0 0 0 2 4 3 1 0 0 0 0 0 0 0 0 1 2 2 2 2 2 2 1 0 0 0 0 0 0 0 0 0 0 0 0 0 0 0
0 0 0 0 0 0 0 0 0 0 0 0 1 3 7 9 8 4 1 0 0 0 0 0 0 0 1 2 2 2 2 1 1 1 0 0 0 0 0 0 0 0 0 0 0 0 0 0 0
0 0 0 0 0 0 0 0 0 0 0 0 3 9 14 14 11 6 1 0 0 0 0 0 0 0 0 1 1 1 1 0 0 0 0 0 0 0 0 0 0 0 0 0 0 0 0 0 0
0 0 0 0 0 0 0 0 0 0 0 2 7 14 17 15 11 5 1 0 0 0 0 0 1 1 1 1 0 0 0 0 0 0 0 0 0 0 0 0 0 0 0 0 0 0 0 0 0
0 0 0 0 0 0 0 0 0 0 0 3 10 15 16 13 9 4 1 0 0 0 0 0 1 2 2 1 0 0 0 0 0 0 0 0 0 0 0 0 0 0 0 0 0 0 0 0 0
0 0 0 0 0 0 0 0 0 0 1 4 9 12 12 10 7 5 3 1 1 0 0 0 1 2 3 1 0 0 0 0 0 0 0 0 0 0 0 0 0 0 0 0 0 0 0 0 0
0 0 0 0 0 0 0 0 0 0 1 3 6 8 9 8 8 6 4 2 1 1 0 0 1 3 2 1 0 0 0 0 0 0 0 0 0 0 0 0 0 0 0 0 0 0 0 0 0
0 0 0 0 0 0 0 0 0 0 1 3 6 7 7 7 6 5 4 3 2 2 2 2 2 3 2 1 0 0 0 0 0 0 0 0 0 0 0 0 0 0 0 0 0 0 0 0 0
0 0 0 0 0 0 0 0 0 0 1 3 5 8 7 6 6 6 5 5 5 5 3 3 3 3 3 1 1 0 0 0 0 0 0 0 0 0 0 0 0 0 0 0 0 0 0 0 0
0 0 0 0 0 0 0 0 0 0 0 1 4 7 8 8 8 9 9 9 8 6 4 3 3 4 3 3 2 1 0 0 0 0 0 0 0 0 0 0 0 0 0 0 0 0 0 0 0
0 0 0 0 0 0 0 0 0 0 0 1 4 8 10 11 11 12 12 12 9 5 3 3 4 5 4 4 3 1 0 0 0 0 0 0 0 0 0 0 0 0 0 0 0 0 0 0 0
0 0 0 0 0 0 0 0 0 0 0 1 4 9 12 14 14 13 13 12 8 4 3 5 6 6 5 6 4 2 1 0 0 0 0 0 0 0 0 0 0 0 0 0 0 0 0 0 0
0 0 0 0 0 0 0 0 0 0 0 1 5 8 11 14 14 12 12 12 9 5 4 6 6 6 6 6 6 4 3 1 0 0 0 0 0 0 0 0 0 0 0 0 0 0 0 0 0
0 0 0 0 0 0 0 0 0 0 0 2 6 8 9 11 11 12 13 12 9 5 5 5 6 5 4 5 6 5 3 1 0 0 0 0 0 0 0 0 0 1 1 2 1 1 1 1 0
0 0 0 0 0 0 0 0 0 0 0 3 7 8 8 9 10 12 13 11 8 6 4 4 4 4 3 4 4 3 1 1 0 0 0 0 0 0 0 1 1 2 3 4 3 3 3 3 2
0 0 0 0 0 0 0 0 0 0 0 3 7 9 9 8 9 11 12 11 10 7 5 4 4 4 3 3 3 1 0 0 0 0 0 0 0 0 0 1 2 3 4 5 5 6 6 5 4
0 0 0 0 0 0 0 0 0 0 0 2 7 10 10 9 8 10 13 15 14 11 8 7 7 6 5 4 2 1 0 0 0 0 0 0 0 0 1 1 3 3 4 5 6 6 6 6 6
0 0 0 0 0 0 0 0 0 0 1 3 7 10 11 10 10 12 15 17 16 13 11 10 10 9 8 7 5 2 0 0 1 1 0 0 1 1 2 2 3 3 4 5 5 6 6 6 6
0 0 0 0 0 0 0 0 0 0 2 5 8 11 11 11 11 13 15 15 15 15 14 13 13 12 10 8 6 3 1 0 1 1 1 1 2 3 3 3 3 3 3 4 4 4 5 6 6
0 0 0 0 0 0 0 0 0 0 2 5 9 12 14 13 14 14 14 14 15 16 16 15 14 12 9 7 7 4 2 1 1 1 1 2 3 3 3 3 3 3 3 3 3 3 4 4 4
0 0 0 0 0 0 0 0 0 0 1 4 8 12 14 17 18 16 15 15 16 17 16 14 13 11 9 9 9 7 4 2 1 2 2 3 3 3 3 3 3 3 3 3 3 3 3 3 2
0 0 0 0 0 0 0 0 0 0 1 4 8 11 13 17 19 17 15 15 16 17 16 13 12 12 11 11 11 9 6 4 3 3 3 3 3 3 3 3 3 3 3 3 3 3 3 3 3
Wind_Speed
7 6 3 2 6 6 4 4 2 3 4 4 6 7 7 5 2 3 0 4 4 3 3 5 8 9 10 11 11 12 12 12 13 13 14 14 14 15 15 15 15 16 16 16 16 16 16 16 16
4 4 2 4 7 5 4 3 4 4 4 5 6 7 7 5 4 5 2 3 5 4 3 4 8 9 10 11 11 11 12 12 13 13 13 14 14 14 15 15 15 15 15 16 16 16 16 16 16
4 2 4 5 5 3 2 1 5 5 4 4 5 6 5 3 4 3 3 5 5 4 3 3 8 8 9 10 10 11 12 12 12 12 13 13 13 13 14 14 14 14 15 15 15 15 15 14 14
2 3 5 7 4 1 4 4 5 5 5 6 5 6 5 4 4 4 7 7 6 4 3 3 8 8 8 9 10 10 11 12 12 12 12 12 12 13 13 13 13 14 14 14 14 14 13 13 13
3 5 7 5 3 3 3 4 3 4 4 5 5 6 4 3 7 9 8 6 5 3 2 2 7 8 8 9 9 10 10 11 11 11 11 11 12 12 12 12 12 13 13 13 13 12 12 12 11
5 5 6 3 3 3 3 3 4 7 6 5 5 5 3 3 7 7 6 5 4 3 2 2 6 7 8 8 8 9 9 10 10 10 11 11 11 10 10 11 11 11 11 11 11 11 11 11 10
5 5 4 4 3 2 3 2 3 6 5 4 4 5 3 2 4 6 6 5 4 3 3 2 3 4 6 7 8 8 8 8 9 9 10 10 9 9 9 9 9 9 9 9 9 10 10 9 8
5 6 4 3 4 3 4 4 3 5 5 5 4 6 4 4 6 7 6 5 4 3 3 2 3 3 3 3 6 7 7 7 7 8 8 8 7 7 7 6 7 8 8 8 8 7 7 7 7
4 6 2 4 6 4 5 5 3 3 6 3 3 4 6 11 10 8 5 3 2 2 1 1 2 2 2 2 3 4 5 5 5 5 6 6 4 4 3 4 5 6 6 6 6 6 5 5 5
5 4 4 4 5 6 6 5 6 5 4 4 7 8 12 12 10 8 6 6 4 3 2 1 1 1 1 1 2 2 3 3 3 3 3 3 3 2 3 4 4 4 4 4 5 5 5 4 3
3 4 2 2 4 7 6 5 4 8 3 5 9 12 13 11 8 7 6 5 5 4 3 2 2 1 1 1 1 1 1 2 2 2 2 2 2 2 2 2 3 3 3 2 3 3 2 2 1
3 1 3 3 4 6 7 5 5 4 4 7 11 14 13 11 9 8 7 5 4 3 4 3 2 2 1 1 1 1 1 1 1 1 1 1 1 1 1 1 1 1 1 1 1 1 2 2 1
4 2 4 5 6 6 7 5 5 2 6 10 12 12 12 11 8 6 5 4 4 4 4 4 3 3 2 2 1 1 1 1 1 0 1 1 0 0 0 1 1 1 0 1 1 1 1 1 1
3 5 6 6 6 4 7 4 4 3 8 11 11 10 10 9 8 5 5 5 5 5 5 4 4 4 3 2 2 1 1 1 1 1 1 1 1 1 0 0 1 1 0 0 0 0 0 0 0
5 7 6 4 4 3 7 4 1 5 8 9 9 8 8 7 7 7 7 6 6 5 4 4 4 4 3 3 2 2 1 1 1 1 1 1 2 1 1 1 1 1 0 0 0 0 0 0 0
5 6 3 1 2 3 6 2 2 5 8 7 7 7 6 6 6 6 6 5 5 4 4 4 5 4 4 3 2 1 1 1 1 1 1 2 2 2 1 1 1 1 0 0 1 0 0 0 1
5 2 1 1 1 3 4 3 4 5 7 6 6 6 6 5 5 5 6 6 5 5 4 4 3 4 3 2 2 1 1 1 1 1 1 1 2 2 2 1 1 1 1 1 1 1 1 1 1
3 2 2 3 2 3 3 3 4 6 6 6 5 5 5 6 7 6 5 5 4 4 4 3 3 3 3 2 2 1 1 0 0 1 1 1 1 2 2 1 1 1 1 1 1 1 1 1 1
5 4 2 3 2 3 3 3 5 6 6 6 6 6 6 6 4 4 5 5 4 3 3 3 3 3 3 2 2 1 1 0 0 1 1 1 1 1 2 1 1 1 1 2 2 2 1 1 2
5 3 2 1 1 3 2 1 3 7 9 8 8 7 6 5 3 4 5 5 5 5 4 4 4 4 4 2 2 1 1 1 1 0 0 1 1 1 2 2 2 2 2 1 2 2 2 1 2
3 5 5 3 3 4 4 3 2 4 4 5 6 6 6 8 7 6 6 6 6 6 6 5 5 4 4 3 2 2 2 1 1 1 1 1 0 1 1 1 1 1 2 2 2 3 4 2 2
3 3 5 5 5 1 2 2 5 4 4 7 8 7 8 8 7 7 7 7 7 6 5 5 4 4 3 4 3 3 2 1 1 1 0 1 1 1 1 1 1 1 1 1 2 2 2 3 2
3 3 5 4 5 2 2 2 7 1 5 10 10 10 10 9 9 9 9 8 6 5 5 4 4 3 3 4 4 3 2 1 0 1 1 1 2 2 1 1 1 0 0 0 1 1 2 2 2
6 8 8 6 6 1 2 3 7 5 8 7 9 11 11 10 10 9 7 6 5 4 5 4 4 3 3 4 4 4 4 2 2 1 1 1 1 1 2 2 1 1 1 0 0 0 1 1 1
6 7 5 4 4 5 2 2 9 7 7 8 8 11 11 10 9 9 8 8 7 6 6 5 5 4 3 3 3 4 4 3 3 2 2 1 0 1 1 1 1 1 1 1 1 1 1 0 1
5 9 9 6 5 4 1 5 9 5 5 5 5 6 8 8 9 9 9 8 8 7 6 6 5 4 4 4 3 3 3 3 2 2 2 1 1 0 1 2 1 2 2 2 1 1 1 1 1
7 3 6 8 3 0 4 6 9 2 2 0 3 5 7 8 8 8 8 8 8 8 7 7 6 5 4 4 3 3 4 3 3 2 2 1 1 1 2 2 2 2 2 2 2 2 2 1 1
6 10 7 7 6 2 3 4 5 5 3 2 3 5 6 7 7 7 7 7 7 7 7 6 6 6 5 4 4 3 3 3 3 3 3 2 2 2 3 3 3 3 3 3 2 2 2 2 2
5 5 6 5 6 7 2 7 7 7 5 4 4 5 6 8 9 8 7 7 7 6 6 6 6 5 4 4 4 4 3 3 4 4 3 3 2 3 3 3 3 3 3 3 3 3 3 3 3
5 8 9 7 4 4 5 8 5 5 5 4 4 4 5 6 7 7 8 7 7 7 6 6 6 5 5 5 5 4 4 4 4 4 3 3 3 3 3 3 3 3 3 3 3 3 4 4 4
Wind_Direction
153 145 138 99 56 50 36 9 65 70 56 51 74 81 84 64 77 123 92 113 106 90 67 91 91 87 85 88 92 95 97 95 96 98 100 100 99 99 100 99 98 99 100 101 101 101 100 102 105
148 148 110 62 72 59 11 7 71 77 123 117 78 73 71 60 60 101 112 116 105 99 72 91 96 91 89 89 90 93 99 96 98 98 100 99 100 99 100 98 97 98 100 101 102 101 100 100 103
155 145 85 68 78 123 135 97 108 108 100 78 75 64 72 89 112 130 143 124 100 89 75 102 102 97 94 94 92 91 94 95 97 97 98 98 99 100 99 99 99 99 99 100 100 101 100 100 102
122 56 54 66 68 117 149 154 132 114 70 56 83 70 67 91 134 131 125 119 104 91 77 109 109 104 100 98 96 96 96 97 98 98 97 98 99 99 100 99 98 97 97 99 101 101 102 102 104
67 73 60 54 44 56 102 139 122 95 81 69 81 86 55 40 98 114 121 120 116 102 91 115 115 110 106 102 100 100 100 100 99 100 100 99 99 99 101 101 99 98 99 101 101 101 101 104 106
61 68 79 82 64 66 92 107 95 87 89 86 84 89 59 86 108 122 119 112 109 108 90 97 119 113 109 108 106 104 103 101 100 101 102 100 99 100 101 103 103 102 103 103 103 103 103 105 106
96 85 111 130 111 111 151 116 102 112 105 104 103 92 89 112 120 121 110 102 97 89 77 59 75 100 110 111 107 106 104 103 102 102 102 100 99 100 102 105 109 108 107 105 105 105 105 106 108
116 95 89 124 138 160 144 106 101 110 104 112 107 125 160 170 130 110 98 92 90 83 72 64 59 62 62 82 110 112 112 110 104 101 100 97 94 95 97 96 108 110 109 108 106 105 104 105 104
87 78 137 183 167 162 144 124 124 87 108 108 94 128 146 137 127 115 107 101 115 129 88 79 77 71 68 78 114 109 112 101 91 87 90 78 52 47 61 80 101 108 109 110 108 100 93 88 86
81 112 201 197 169 149 145 136 140 112 111 87 79 90 120 135 141 145 155 163 172 177 177 151 131 119 89 87 73 57 62 61 60 54 57 58 55 36 42 42 67 79 89 98 95 84 75 71 64
108 156 181 126 134 128 128 128 118 126 149 166 145 140 141 147 154 163 172 178 184 182 185 173 175 169 138 71 84 69 60 59 56 58 60 58 51 31 29 26 22 26 35 43 52 52 53 62 74
97 78 110 114 114 121 135 128 108 138 183 152 144 146 150 159 172 179 180 184 174 173 195 189 175 173 172 138 103 108 96 74 64 62 81 79 49 24 24 24 8 14 24 28 37 43 42 44 66
72 67 62 84 90 101 103 105 113 109 118 123 133 145 160 170 179 184 178 176 175 189 199 190 178 183 178 163 177 153 161 172 198 157 162 162 167 308 8 353 345 340 16 33 27 40 19 348 322
83 79 74 71 79 83 102 86 90 126 127 132 144 159 171 176 175 169 169 180 189 194 197 184 184 184 173 178 192 184 173 183 193 210 199 178 179 203 241 301 308 303 297 202 194 204 2 340 329
87 79 54 48 72 93 97 63 110 153 137 145 158 164 171 175 172 180 184 186 190 189 183 181 186 177 177 189 199 187 174 167 200 217 206 195 194 205 214 230 269 270 251 164 152 146 88 88 116
57 66 69 324 95 117 109 161 203 151 146 159 170 171 172 180 185 187 180 178 177 172 171 182 184 170 178 180 177 160 151 163 205 214 203 210 205 197 193 211 247 253 206 139 156 156 122 127 132
38 97 156 269 172 134 129 183 188 164 160 173 179 179 176 179 189 188 179 176 173 173 170 172 167 160 166 159 136 134 135 157 191 199 203 212 206 192 185 207 233 210 156 167 201 141 157 156 136
183 165 192 213 208 140 147 189 174 173 174 185 186 184 183 189 200 187 175 169 166 167 164 163 155 150 139 119 100 90 78 90 163 203 217 201 194 186 181 202 216 160 145 158 155 156 149 157 146
154 153 186 235 192 138 170 185 189 182 186 194 199 194 193 200 189 163 165 161 156 158 158 162 165 158 135 122 137 133 169 208 256 235 218 202 196 184 179 207 196 176 177 191 179 152 145 147 139
139 140 184 322 82 124 133 227 208 195 202 200 200 201 197 191 175 170 168 170 170 174 183 173 177 169 165 165 153 154 155 171 195 270 247 207 199 197 196 192 204 198 185 188 182 161 160 186 170
161 172 181 159 62 55 85 344 244 229 217 211 205 196 194 196 193 188 181 187 184 187 191 188 184 181 178 163 124 94 70 40 24 6 345 328 224 199 203 198 200 201 190 200 201 186 184 194 204
221 213 152 132 108 355 113 253 274 230 227 218 212 200 198 199 192 190 190 194 196 196 186 183 181 180 171 156 157 160 163 181 223 219 330 18 32 61 126 140 154 179 180 201 219 195 196 188 204
181 94 103 106 112 68 34 148 284 214 237 233 216 207 202 195 189 193 195 195 194 183 179 181 176 175 168 164 167 166 173 185 159 92 67 41 27 36 51 73 75 76 105 207 225 195 198 197 207
116 73 57 49 68 40 240 162 274 228 222 232 213 205 201 195 190 191 186 177 180 174 176 174 176 183 171 165 163 169 177 173 163 153 130 61 28 22 29 54 58 44 48 30 355 139 163 193 200
97 93 50 15 18 254 267 190 251 252 236 225 211 200 197 191 187 183 175 176 179 178 181 178 175 184 177 169 167 173 178 175 180 177 168 151 64 26 11 42 48 32 37 47 53 81 77 120 166
157 135 150 175 204 267 317 236 257 271 267 240 205 185 181 184 186 186 182 179 180 180 182 178 176 180 174 171 168 159 154 159 165 160 148 148 138 91 50 60 55 41 43 52 62 65 50 57 68
129 145 150 124 139 108 282 287 302 310 336 309 165 164 178 186 186 185 177 176 178 177 182 182 176 172 173 174 157 146 146 146 146 137 126 120 105 85 67 71 65 50 49 50 62 59 41 51 48
131 141 107 116 138 204 295 285 261 279 273 274 191 185 187 178 175 175 173 174 175 176 173 168 170 168 169 161 154 147 141 140 136 123 113 103 83 73 77 69 62 54 49 47 55 48 36 56 41
110 97 103 107 142 148 201 266 233 230 227 220 223 201 182 173 173 174 170 169 160 155 157 160 160 155 153 151 140 134 131 124 115 107 103 99 86 84 80 74 66 54 45 45 59 53 47 54 44
148 154 143 145 181 158 159 260 275 230 228 210 211 200 180 167 169 165 159 153 151 156 157 158 159 158 157 146 135 133 123 114 106 99 93 90 87 82 81 78 71 58 51 52 64 60 51 55 51